Weather History for KRKS - June, 2013

Change the Weather History Date:

Friday, June 21, 2013

  Actual Average Record
Temperature  
Mean Temperature 64 °F 63 °F  
Max Temperature 80 °F 77 °F 91 °F (1988)
Min Temperature 47 °F 48 °F 33 °F (1960)
Degree Days  
Heating Degree Days 1 4  
Month to date heating degree days 57 140  
Since 1 June heating degree days 57 140  
Since 1 July heating degree days 7641 8115  
Cooling Degree Days 0 1  
Month to date cooling degree days 38 13  
Year to date cooling degree days 39 14  
Since 1 June cooling degree days 38 13  
Growing Degree Days 14 (Base 50)    
Moisture  
Dew Point 17 °F    
Average Humidity 18    
Maximum Humidity 26    
Minimum Humidity 9    
Precipitation  
Precipitation 0.00 in 0.02 in 0.39 in (2003)
Month to date precipitation T 0.60  
Year to date precipitation 1.49 4.33  
Sea Level Pressure  
Sea Level Pressure 29.81 in    
Wind  
Wind Speed 10 mph (West)    
Max Wind Speed 25 mph    
Max Gust Speed 35 mph    
Visibility 10 miles    
Events      
T = Trace of Precipitation, MM = Missing Value Source: NWS Daily Summary

Daily Weather History Graph

Daily Weather History Graph

Search for Another Location

Airport or City:

Trip Planner

Search our weather history database for the weather conditions in past years. The results will help you decide how hot, cold, wet, or windy it might be!

Date:

Astronomy

Jun. 21, 2013 Rise Set
Actual Time 5:42 AM MDT 8:53 PM MDT
Civil Twilight 5:08 AM MDT 9:28 PM MDT
Nautical Twilight 4:24 AM MDT 10:11 PM MDT
Astronomical Twilight 3:31 AM MDT 11:04 PM MDT
Moon 7:07 PM MDT (6/21) 4:01 AM MDT (6/21)
Length of Visible Light 16h 20m
Length of Day
15h 11m
Waxing Gibbous, 95% of the Moon is Illuminated
Jun 21
Waxing Gibbous
Jun 23
Full
Jun 29
Last Quarter
Jul 8
New
Jul 15
First Quarter

Hourly Weather History & Observations

Time (MDT) Temp. Dew Point Humidity Pressure Visibility Wind Dir Wind Speed Gust Speed Precip Events Conditions
12:54 AM 57.0 °F 15.1 °F 19% 29.84 in 10.0 mi NNW 4.6 mph - N/A   Clear
1:54 AM 53.1 °F 17.1 °F 24% 29.83 in 10.0 mi South 5.8 mph - N/A   Clear
2:54 AM 51.1 °F 16.0 °F 25% 29.82 in 10.0 mi South 5.8 mph - N/A   Clear
3:54 AM 50.0 °F 16.0 °F 26% 29.82 in 10.0 mi SSE 5.8 mph - N/A   Clear
4:54 AM 54.0 °F 16.0 °F 22% 29.80 in 10.0 mi SSW 3.5 mph - N/A   Clear
5:54 AM 48.9 °F 15.1 °F 26% 29.81 in 10.0 mi SSE 4.6 mph - N/A   Clear
6:54 AM 52.0 °F 16.0 °F 24% 29.81 in 10.0 mi Calm Calm - N/A   Clear
7:54 AM 55.0 °F 16.0 °F 22% 29.81 in 10.0 mi NE 3.5 mph - N/A   Clear
8:54 AM 60.1 °F 17.1 °F 19% 29.81 in 10.0 mi Variable 3.5 mph - N/A   Clear
9:54 AM 64.9 °F 18.0 °F 16% 29.80 in 10.0 mi Calm Calm - N/A   Clear
10:54 AM 69.1 °F 18.0 °F 14% 29.79 in 10.0 mi Variable 3.5 mph - N/A   Clear
11:54 AM 75.9 °F 12.0 °F 9% 29.76 in 10.0 mi West 23.0 mph 29.9 mph N/A   Clear
12:54 PM 75.0 °F 14.0 °F 10% 29.77 in 10.0 mi WSW 11.5 mph 26.5 mph N/A   Clear
1:54 PM 75.9 °F 15.1 °F 10% 29.78 in 10.0 mi West 13.8 mph 20.7 mph N/A   Clear
2:54 PM 75.9 °F 18.0 °F 11% 29.78 in 10.0 mi West 12.7 mph 23.0 mph N/A   Clear
3:54 PM 78.1 °F 17.1 °F 10% 29.76 in 10.0 mi WNW 13.8 mph 27.6 mph N/A   Clear
4:54 PM 80.1 °F 17.1 °F 9% 29.74 in 10.0 mi WSW 21.9 mph 31.1 mph N/A   Clear
5:08 PM 77.0 °F 17.6 °F 11% 29.99 in 10.0 mi West 12.7 mph 21.9 mph N/A   Clear
5:54 PM 78.1 °F 19.0 °F 11% 29.76 in 10.0 mi West 25.3 mph 34.5 mph N/A   Clear
6:54 PM 73.0 °F 19.9 °F 14% 29.78 in 10.0 mi NW 23.0 mph 31.1 mph N/A   Clear
7:54 PM 66.9 °F 21.0 °F 17% 29.82 in 10.0 mi NW 16.1 mph - N/A   Clear
8:54 PM 63.0 °F 21.9 °F 21% 29.82 in 10.0 mi NNW 12.7 mph - N/A   Clear
9:54 PM 62.1 °F 21.0 °F 21% 29.83 in 10.0 mi NW 8.1 mph - N/A   Clear
10:54 PM 60.1 °F 21.0 °F 22% 29.84 in 10.0 mi NW 5.8 mph - N/A   Clear
11:54 PM 57.9 °F 19.9 °F 23% 29.81 in 10.0 mi North 5.8 mph - N/A   Clear